星链-1808 (STARLINK-1808 )

导读

STARLINK-1808是美国于2020年10月18日发射的星链卫星,隶属于SpaceX星链低轨互联网星座项目。星链计划旨在为全球提供高速宽带互联网服务,该卫星进入预定轨道后,承担着为覆盖区域提供网络信号传输的任务,推进星链星座全球组网进程,也凸显了美国在低轨卫星互联网建设领域的进度。

基本信息
目录编号:
46707
目录名称:
STARLINK-1808
国际标识:
2020-073AP
轨道中心:
EARTH
卫星名称:
星链-1808
卫星全名:
星链-1808 (STARLINK-1808 )
卫星状态:
已陨落 最后检测时间 2025-04-25
发射日期:
2020-10-18 UTC
国别 :
美国 (US)
星等 :
--
该卫星已列入 空间交会检测服务 Space Conjunction Data Service (SCDS) ,当前飞行风险评估等级: 无高风险
轨道信息
数据来源 国际轨道数据
星历时间: 2025-04-25T00:00:29+0800
轨道信息已过期504天
半长轴: 6533.016km
偏心率: 0.0006929
轨道倾角: 53.015°
近地点辐角 234.887°
升交点赤经 149.623°
平近点角 226.340°
近地点: 150.354km
远地点: 159.408km
周期: 87.585分钟
每日圈数: 16.441153
详细信息
固有亮度:
5
最大亮度:
2.5
卫星平台:
Starlink V1.0
覆盖范围:
全球
运营商:
太空探索技术公司
运营商所在国:
美国
制造商(研发单位):
太空探索技术公司
制造商所在国:
美国
使用方式:
暂无
卫星简介
星链(Starlink)计划是由太空探索技术公司(SpaceX)提出的一个巨型低轨卫星互联网星座项目,计划在2019年至2024年间在太空搭建由约1.2万颗卫星组成的“星链”网络,其中1584颗将部署在地球上空550千米处的近地轨道,并从2020年开始工作。该卫星仍在工作。
与全量物体交会距离演化趋势
与全量物体交会风险概率演化趋势